sat.trackr.live / text

‹ back to catalog

STARLINK-30938

NORAD 58389 · 2023-178R

PAYLOAD ACTIVE UNKNOWN

§ Identity

Operator
Country
US
Launch date
2023-11-20
Launch site
AFWTR
Launch vehicle
Mass (kg)
RCS (m²)

Purposes: comms

External: N2YO · Heavens-Above · Gunter

§ Orbital elements

Epoch: 2026-05-25T01:55:04.828800Z

Period
94.11 min
Inclination
53.1610°
Eccentricity
0.0001237
Mean motion
15.30193483 rev/d
Perigee alt
474.4 km
Apogee alt
476.1 km
Semi-major
6,853.4 km
B*
3.2098e-5
RAAN
6.4893°
Arg perigee
90.6748°
Mean anomaly
269.4395°
Rev number
14,158

§ Raw data

STARLINK-309381 58389U 23178R   26145.07991700  .00000591  00000+0  32098-4 0  99952 58389  53.1610   6.4893 0001237  90.6748 269.4395 15.30193483141582

JSON: /api/v1/satellites/58389 · /tle

For live sub-satellite position, see the globe view (requires WebGL).

§ Visibility from observer

Set your observer location to see the next 7 days of passes ≥ 10°. The values pass through the URL so the page stays shareable.

No JS? Fill the form by hand. The geolocation button needs JavaScript.